Regional Weather Roundup
Issued by NWS Little Rock, AR

Home | Current Version | Previous Version | Text Only | Print | Product List | Glossary On
Versions: 1 2 3 4 5 6 7 8 9 10 11 12 13 14 15 16 17 18 19 20 21 22 23 24 25 26 27 28 29 30 31 32 33 34 35 36 37 38 39 40 41 42 43 44 45 46 47 48 49 50
894
ASUS44 KLZK 262305
RWRLZK

WEATHER ROUNDUP FOR ARKANSAS
NATIONAL WEATHER SERVICE LITTLE ROCK AR
600 PM CDT FRI MAY 26 2017

NOTE: "FAIR" INDICATES FEW OR NO CLOUDS BELOW 12,000 FEET WITH NO
SIGNIFICANT WEATHER AND/OR OBSTRUCTIONS TO VISIBILITY.

ARZ001-003-010-029-270000-
NORTHWEST ARKANSAS

CITY           SKY/WX    TMP DP  RH WIND       PRES   REMARKS
FAYETTEVILLE   MOSUNNY   82  71  69 S13       29.78R HX  86
FORT SMITH     SUNNY     88  70  55 S9        29.74S HX  93
HARRISON       CLOUDY    82  68  62 S5        29.80S HX  85
BENTONVILLE    PTSUNNY   84  70  61 SW8       29.80R HX  88
ROGERS         PTSUNNY   84  71  65 SW12      29.79S HX  89
SILOAM SPGS    PTSUNNY   84  70  61 S12       29.77R HX  88
HIGHFILL       PTSUNNY   85  72  65 S8        29.78R HX  91
SPRINGDALE     PTSUNNY   84  70  61 S14       29.80R HX  88
$$

ARZ004-005-016-270000-
NORTH CENTRAL ARKANSAS

CITY           SKY/WX    TMP DP  RH WIND       PRES   REMARKS
BATESVILLE     PTSUNNY   79  70  73 S9        29.82S
FLIPPIN        MOSUNNY   81  66  61 S5        29.77S
MTN HOME       MOSUNNY   79  69  71 S8        29.79R
$$

ARZ040-041-270000-
WEST CENTRAL ARKANSAS

CITY           SKY/WX    TMP DP  RH WIND       PRES   REMARKS
MENA           MOSUNNY   86  79  79 S3        29.81S HX  99
MOUNT IDA      PTSUNNY   84  70  62 VRB7      29.79F HX  88
$$

ARZ009-017-025-026-028-270000-
NORTHEAST ARKANSAS

CITY           SKY/WX    TMP DP  RH WIND       PRES   REMARKS
JONESBORO      PTSUNNY   81  67  62 SW17G31   29.81R
NEWPORT        MOSUNNY   80  69  69 SW21      29.81R
WALNUT RIDGE   PTSUNNY   79  66  65 SW17      29.81S
BLYTHEVILLE    CLOUDY    81  68  64 SW22G29   29.82R
$$

ARZ022-023-033-042-044-270000-
CENTRAL ARKANSAS

CITY           SKY/WX    TMP DP  RH WIND       PRES   REMARKS
LITTLE ROCK    CLOUDY    81  73  76 S8        29.82F HX  86
JACKSONVILLE   MOSUNNY   82  72  71 S12G20    29.81S HX  87
CONWAY           N/A     84  72  65 S14       29.79S HX  89
SEARCY         CLOUDY    82  73  74 S9        29.83S HX  87
HOT SPRINGS    CLOUDY    84  73  69 S7        29.81F HX  90
RUSSELLVILLE   SUNNY     84  70  62 S6        29.78S HX  88
CLINTON        CLOUDY    81  72  74 S7G14     29.80S HAZE
$$

ARZ036-270000-
EAST ARKANSAS

CITY           SKY/WX    TMP DP  RH WIND       PRES   REMARKS
WEST MEMPHIS   MOSUNNY   83  69  62 SW9G23    29.83R HX  86
$$

ARZ050-053-066-070-073-270000-
SOUTHWEST ARKANSAS

CITY           SKY/WX    TMP DP  RH WIND       PRES   REMARKS
ARKADELPHIA    CLOUDY    84  73  69 S10       29.82R HX  90
CAMDEN         PTSUNNY   84  70  61 S7        29.83S HX  88
TEXARKANA      PTSUNNY   84  73  69 S14       29.81S HX  90
EL DORADO      PTSUNNY   83  72  69 S14G23    29.85S HX  88
DE QUEEN       PTSUNNY   87  75  67 S10       29.76F HX  96
$$

ARZ056-057-069-270000-
SOUTHEAST ARKANSAS

CITY           SKY/WX    TMP DP  RH WIND       PRES   REMARKS
PINE BLUFF     CLOUDY    82  71  69 S13       29.84S HX  86
STUTTGART      CLOUDY    82  63  51 S12       29.85S
MONTICELLO     PTSUNNY   83  70  64 SW14G23   29.85S HX  87

$$






USA.gov is the U.S. government's official web portal to all federal, state and local government web resources and services.